Location: Banff
(51.1667°N, 115.5667°W)
Time: 03:46:43
(UTC+00:00)

Explorer 7 - Pass Details

Date: 27 November 2020
Orbit: 484 x 678 km, 50.3° (Epoch: 16 January)

Event Time Altitude Azimuth Distance (km) Brightness Sun altitude
Exits shadow 12:35:07 66° 111° (ESE) 609 7.1 -24.9°
Drops below altitude 10° 12:38:40 10° 89° (E) 1,786 10.5 -24.4°
Sets 12:40:49 0° 88° (E) 2,648 11.7 -24.0°
